Weather observations for the past three days for
Knoxville
Metric (Imperial)
Date Time (cdt) Wind (kph) Vis. (km) Weather Sky Cond. Temperature (ºC) Relative Humidity Wind Chill (°C) Heat Index (°C) Pressure Precipitation (cm)
Air Dwpt 6 hour altimeter (cm) sea level (mb) 1 hr 3 hr 6 hr
Max. Min.
31 16:35 SW 13 16.09 Fair CLR 33 23 56% 38 75.95 0.0
31 16:15 SW 11 16.09 Fair CLR 33 24 59% 39 75.95 0.0
31 15:55 SW 11 G 22 16.09 Fair CLR 33 24 59% 39 75.97 0.0
31 15:35 SW 11 16.09 Fair CLR 33 23 56% 38 75.97 0.0
31 15:15 SW 13 16.09 Fair CLR 32 23 59% 37 75.97 0.0
31 14:55 S 15 G 24 16.09 Fair CLR 32 23 59% 37 75.97 0.0
31 14:35 SW 13 G 22 16.09 Fair CLR 32 23 59% 37 75.97 0.0
31 14:15 SW 13 16.09 Fair CLR 33 23 56% 38 76 0.0
31 13:55 SW 13 16.09 Fair CLR 32 22 55% 36 76 0.0
31 13:35 SW 9 16.09 Fair CLR 32 22 55% 36 75.97 0.0
31 13:15 SW 7 16.09 Fair CLR 31 22 59% 35 75.97 0.0
31 12:55 W 9 16.09 Fair CLR 31 22 59% 35 75.97 0.0
31 12:35 SW 7 16.09 Fair CLR 30 22 62% 33 75.97 0.0
31 12:15 SW 7 16.09 Fair CLR 30 22 62% 33 75.97 0.0
31 11:55 SW 11 16.09 Fair CLR 30 21 59% 33 75.97 0.0
31 11:35 SW 13 16.09 Fair CLR 30 21 59% 33 75.97 0.0
31 11:15 SW 13 16.09 Fair CLR 29 20 58% 31 75.97 0.0
31 10:55 W 15 16.09 Fair CLR 29 20 58% 31 76 0.0
31 10:35 W 20 G 33 12.87 Fair CLR 29 20 58% 31 75.97 0.0
31 10:15 SW 19 G 28 16.09 Fair CLR 28 19 58% 29 75.97 0.0
31 09:55 SW 24 16.09 Fair CLR 28 19 58% 29 75.95 0.0
31 09:35 SW 17 G 28 16.09 Fair CLR 28 19 58% 29 75.92 0.0
31 09:15 SW 15 G 28 16.09 Fair CLR 27 19 62% 28 75.92 0.0
31 08:55 SW 19 G 31 16.09 Fair CLR 27 18 58% 28 75.92 0.0
31 08:35 SW 22 G 41 16.09 Fair CLR 26 18 61% 27 75.9 0.0
31 08:15 SW 24 G 35 16.09 Fair CLR 26 18 61% 27 75.87 0.0
31 07:55 SW 22 G 33 16.09 Fair CLR 26 18 61% 27 75.87 0.0
31 07:35 SW 24 16.09 Fair CLR 25 17 61% 26 75.87 0.0
31 07:15 SW 22 16.09 Fair CLR 25 17 61% 26 75.84 0.0
31 06:55 SW 24 16.09 Fair CLR 25 17 61% 26 75.84 0.0
31 06:35 S 19 G 30 16.09 Fair CLR 25 17 61% 26 75.84 0.0
31 06:15 S 20 G 30 16.09 Fair CLR 25 18 65% 26 75.82 0.0
31 05:55 S 24 16.09 Fair CLR 25 17 61% 26 75.82 0.0
31 05:35 S 19 G 33 16.09 Fair CLR 26 18 61% 27 75.82 0.0
31 05:15 S 24 16.09 Fair CLR 25 18 65% 26 75.79 0.0
31 04:55 S 19 16.09 Fair CLR 25 18 65% 26 75.82 0.0
31 04:35 S 19 16.09 Fair CLR 26 18 61% 27 75.82 0.0
31 04:15 S 19 16.09 Fair CLR 26 18 61% 27 75.82 0.0
31 03:55 S 19 16.09 Fair CLR 26 18 61% 27 75.82 0.0
31 03:35 S 20 G 30 16.09 Fair CLR 26 18 61% 27 75.82 0.0
31 03:15 S 20 16.09 Partly Cloudy SCT190 26 19 65% 27 75.82 0.0
31 02:55 S 17 16.09 Partly Cloudy SCT190 25 19 69% 26 75.82 0.0
31 02:35 S 17 16.09 Fair CLR 25 19 69% 26 75.82 0.0
31 02:15 S 19 16.09 Fair CLR 26 19 65% 27 75.82 0.0
31 01:55 S 17 16.09 Fair CLR 26 19 65% 27 75.84 0.0
31 01:35 S 19 16.09 Fair CLR 26 19 65% 27 75.84 0.0
31 01:15 S 17 16.09 Fair CLR 26 19 65% 27 75.84 0.0
31 00:55 S 17 16.09 Fair CLR 26 19 65% 27 75.84 0.0
31 00:35 S 20 16.09 Fair CLR 27 19 62% 28 75.82 0.0
31 00:15 S 17 16.09 Fair CLR 26 20 70% 27 75.82 0.0
30 23:55 S 19 16.09 Fair CLR 27 20 66% 29 75.82 0.0
30 23:35 S 17 16.09 Fair CLR 27 20 66% 29 75.82 0.0
30 23:15 S 19 16.09 Fair CLR 27 20 66% 29 75.82 0.0
30 22:55 S 17 16.09 Fair CLR 27 21 70% 29 75.82 0.0
30 22:35 S 17 16.09 Fair CLR 27 21 70% 29 75.82 0.0
30 22:15 S 11 16.09 A Few Clouds FEW200 27 22 74% 29 75.84 0.0
30 21:55 SE 11 16.09 Mostly Cloudy BKN190 BKN210 27 22 74% 29 75.84 0.0
30 21:35 SE 11 16.09 Mostly Cloudy SCT190 BKN210 27 22 74% 29 75.84 0.0
30 21:15 SE 11 16.09 Partly Cloudy FEW150 SCT180 SCT200 27 22 74% 29 75.84 0.0
30 20:55 SE 9 16.09 Mostly Cloudy BKN180 BKN200 27 23 79% 30 75.82 0.0
30 20:35 SE 13 16.09 Partly Cloudy SCT190 SCT210 27 23 79% 30 75.79 0.0
30 20:15 SE 13 16.09 Partly Cloudy SCT200 27 23 79% 30 75.79 0.0
30 19:55 SE 13 G 22 16.09 A Few Clouds FEW180 28 23 74% 31 75.79 0.0
30 19:35 SE 15 16.09 Fair CLR 29 23 70% 33 75.79 0.0
30 19:15 SE 13 16.09 Fair CLR 29 24 74% 34 75.79 0.0
30 18:55 SE 15 16.09 Fair CLR 30 24 70% 35 75.79 0.0
30 18:35 SE 13 16.09 Fair CLR 30 24 70% 35 75.79 0.0
30 18:15 SE 13 16.09 Fair CLR 30 24 70% 35 75.79 0.0
30 17:55 SE 13 16.09 Fair CLR 30 24 70% 35 75.77 0.0
30 17:35 SE 15 16.09 Fair CLR 30 24 70% 35 75.77 0.0
30 17:15 SE 17 14.48 Fair CLR 30 23 66% 34 75.79 0.0
30 16:55 SE 13 G 22 16.09 Fair CLR 30 23 66% 34 75.79 0.0
30 16:35 SE 17 16.09 Fair CLR 29 22 66% 32 75.79 0.0
30 16:15 SE 13 16.09 Fair CLR 28 22 70% 31 75.82 0.0
30 15:55 SE 11 16.09 Fair CLR 28 22 70% 31 75.84 0.0
30 15:35 SE 15 16.09 Fair CLR 28 21 66% 30 75.84 0.0
30 15:15 SE 17 16.09 Fair CLR 27 21 70% 29 75.84 0.0
30 14:55 S 15 G 26 16.09 Fair CLR 27 20 66% 29 75.87 0.0
30 14:35 SE 15 16.09 Fair CLR 27 21 70% 29 75.9 0.0
30 14:15 SE 11 16.09 Fair CLR 26 21 74% 27 75.9 0.0
30 13:55 SE 15 16.09 Fair CLR 26 21 74% 27 75.9 0.0
30 13:35 SE 9 16.09 Fair CLR 26 21 74% 27 75.92 0.0
30 13:15 SE 11 16.09 Fair CLR 25 22 83% 26 75.9 0.0
30 12:55 SE 13 16.09 Fair CLR 26 21 74% 27 75.92 0.0
30 12:35 S 7 16.09 Fair CLR 25 22 83% 26 75.92 0.0
30 12:15 SW 9 G 22 16.09 Fair CLR 25 21 79% 26 75.92 0.0
30 11:55 W 7 16.09 Light Rain FEW085 SCT120 24 21 83% 24 75.92 0.0 0.03
30 11:15 SW 9 16.09 Partly Cloudy FEW060 SCT120 25 20 74% 26 75.92 0.0
30 10:55 W 15 16.09 A Few Clouds FEW130 24 20 78% 24 75.9 0.0
30 10:35 SW 20 G 30 16.09 Fair CLR 24 19 74% 25 75.9 0.0
30 10:15 SW 19 G 33 16.09 Fair CLR 23 20 83% 75.87 0.0
30 09:55 SW 19 0.00 A Few Clouds FEW029 FEW060 FEW065 22 20 88% 75.9 0.0 0.1
30 09:35 SW 15 G 33 8.05 Light Rain CLR 24 18 69% 25 75.87 0.0
30 09:15 SW 22 G 37 16.09 Fair CLR 25 17 61% 26 75.9 0.0
30 08:55 SW 28 G 39 16.09 A Few Clouds FEW110 26 17 58% 27 75.87 0.0
30 08:35 SW 28 G 41 16.09 Fair CLR 26 17 58% 27 75.87 0.0
30 07:55 S 20 G 31 16.09 Partly Cloudy SCT110 SCT160 25 17 61% 26 75.9 0.0
30 07:35 SW 20 16.09 A Few Clouds FEW140 FEW160 25 16 57% 26 75.87 0.0
30 07:15 SW 24 G 37 16.09 A Few Clouds FEW140 FEW160 26 16 54% 27 75.84 0.0
30 06:55 SW 24 G 35 16.09 Fair CLR 26 16 54% 27 75.82 0.0
30 06:35 S 20 G 44 16.09 A Few Clouds FEW170 FEW210 26 16 54% 27 75.82 0.0
30 06:15 SW 26 G 37 16.09 A Few Clouds FEW170 26 16 54% 27 75.84 0.0
30 05:55 SW 22 G 35 16.09 Fair CLR 26 17 58% 27 75.84 0.0
30 05:35 SW 22 G 33 16.09 Mostly Cloudy BKN190 BKN210 25 17 61% 26 75.84 0.0
30 05:15 S 24 G 35 16.09 Overcast OVC190 25 17 61% 26 75.84 0.0
30 04:55 S 20 G 33 16.09 Overcast OVC180 25 17 61% 26 75.84 0.0
30 04:35 S 20 16.09 Overcast OVC180 25 17 61% 26 75.84 0.0
30 04:15 S 22 G 33 16.09 Overcast OVC170 25 17 61% 26 75.87 0.0
30 03:55 S 22 G 33 16.09 Mostly Cloudy BKN170 25 17 61% 26 75.84 0.0
30 03:35 S 22 16.09 Fair CLR 25 17 61% 26 75.84 0.0
30 03:15 S 24 16.09 Fair CLR 25 17 61% 26 75.84 0.0
30 02:55 S 24 16.09 Fair CLR 25 17 61% 26 75.84 0.0
30 02:35 S 24 G 35 16.09 Fair CLR 25 18 65% 26 75.84 0.0
30 02:15 S 22 16.09 Fair CLR 25 18 65% 26 75.84 0.0
30 01:55 S 24 G 33 16.09 Fair CLR 25 18 65% 26 75.87 0.0
30 01:35 S 20 G 31 16.09 Fair CLR 25 18 65% 26 75.87 0.0
30 01:15 S 22 G 35 16.09 Fair CLR 25 19 69% 26 75.87 0.0
30 00:55 S 24 16.09 Fair CLR 25 19 69% 26 75.87 0.0
30 00:35 S 24 G 33 16.09 Fair CLR 25 19 69% 26 75.87 0.0
30 00:15 S 24 G 37 16.09 Fair CLR 25 19 69% 26 75.87 0.0
29 23:55 S 22 G 35 16.09 Fair CLR 25 19 69% 26 75.87 0.0
29 23:35 S 26 G 37 16.09 Fair CLR 25 19 69% 26 75.87 0.0
29 23:15 S 26 16.09 Fair CLR 26 19 65% 27 75.87 0.0
29 22:55 S 22 G 31 16.09 Fair CLR 26 19 65% 27 75.87 0.0
29 22:35 S 24 G 35 16.09 Fair CLR 26 19 65% 27 75.87 0.0
29 22:15 S 26 16.09 Fair CLR 26 20 70% 27 75.87 0.0
29 21:55 S 22 16.09 Fair CLR 26 20 70% 27 75.87 0.0
29 21:35 S 22 16.09 Fair CLR 26 20 70% 27 75.87 0.0
29 21:15 S 22 G 33 16.09 A Few Clouds FEW140 26 20 70% 27 75.84 0.0
29 20:55 S 20 G 31 16.09 Partly Cloudy SCT220 26 20 70% 27 75.84 0.0
29 20:35 S 24 16.09 Mostly Cloudy SCT210 BKN230 26 20 70% 27 75.79 0.0
29 20:15 S 22 G 33 16.09 Mostly Cloudy BKN210 26 21 74% 27 75.79 0.0
29 19:55 S 22 16.09 A Few Clouds FEW150 FEW210 27 21 70% 29 75.82 0.0
29 19:35 S 22 G 33 16.09 A Few Clouds FEW150 FEW190 27 21 70% 29 75.82 0.0
29 19:15 S 24 G 37 16.09 A Few Clouds FEW150 FEW190 27 21 70% 29 75.82 0.0
29 18:55 S 20 G 35 16.09 Fair CLR 27 21 70% 29 75.82 0.0
29 18:35 S 24 G 33 16.09 Fair CLR 27 21 70% 29 75.82 0.0
29 18:15 S 24 G 35 16.09 Fair CLR 28 21 66% 30 75.84 0.0
29 17:55 S 20 G 37 16.09 Fair CLR 28 21 66% 30 75.84 0.0
29 17:35 S 24 G 37 16.09 Fair CLR 29 21 62% 31 75.84 0.0
29 17:15 S 24 16.09 Fair CLR 29 22 66% 32 75.87 0.0
29 16:55 S 24 G 39 16.09 Fair CLR 29 21 62% 31 75.9 0.0
29 16:35 S 24 G 43 16.09 Fair CLR 28 21 66% 30 75.9 0.0
29 16:15 S 20 G 41 16.09 Fair CLR 28 21 66% 30 75.92 0.0
29 15:55 S 28 G 39 16.09 Fair CLR 27 20 66% 29 75.92 0.0
29 15:35 SE 22 G 31 16.09 Fair CLR 26 20 70% 27 75.97 0.0
29 15:15 SE 20 G 33 16.09 Fair CLR 25 19 69% 26 76.02 0.0
29 14:55 SE 24 16.09 Fair CLR 24 19 74% 25 76.05 0.0
29 14:35 SE 20 16.09 Fair CLR 23 19 78% 76.1 0.0
29 14:15 SE 20 16.09 Fair CLR 23 18 74% 76.1 0.0
29 13:55 SE 13 16.09 Fair CLR 23 18 74% 76.12 0.0
29 13:15 S 22 16.09 Fair CLR 22 18 78% 76.1 0.0
29 12:55 SE 17 G 26 16.09 Fair CLR 21 18 83% 76.12 0.0
29 12:35 SE 20 16.09 Fair CLR 20 18 88% 76.12 0.0
29 11:55 SE 15 16.09 A Few Clouds FEW100 FEW120 19 17 88% 76.3 0.0
29 11:35 E 7 16.09 A Few Clouds FEW090 FEW120 19 17 88% 76.4 0.0
29 11:15 NE 13 16.09 Fair CLR 19 17 88% 76.45 0.0
29 10:55 NE 11 G 22 16.09 Fair CLR 19 17 88% 76.4 0.0
29 10:35 N 19 16.09 Light Rain SCT090 SCT120 20 17 83% 76.43 0.0
29 10:15 NW 30 G 48 16.09 Mostly Cloudy BKN090 21 16 73% 76.45 0.0
29 09:55 S 13 16.09 Fair CLR 21 16 73% 76.28 0.0
29 09:35 S 19 16.09 Fair CLR 21 16 73% 76.25 0.0
29 09:15 S 19 16.09 A Few Clouds FEW095 FEW120 21 16 73% 76.25 0.0
29 08:55 S 17 16.09 Fair CLR 21 16 73% 76.28 0.0
29 08:35 S 19 16.09 Fair CLR 20 16 78% 76.28 0.0
29 08:15 S 22 G 31 16.09 Fair CLR 20 16 78% 76.28 0.0
29 07:55 S 11 G 26 16.09 Fair CLR 20 16 78% 76.28 0.0
29 07:35 S 17 16.09 Fair CLR 20 15 73% 76.3 0.0
29 07:15 S 15 16.09 A Few Clouds FEW190 19 15 78% 76.3 0.0
29 06:55 S 19 16.09 Mostly Cloudy FEW170 BKN190 BKN210 20 15 73% 76.3 0.0
29 06:35 S 13 16.09 Mostly Cloudy FEW170 BKN200 19 15 78% 76.3 0.0
29 06:15 S 13 16.09 Fair CLR 19 16 83% 76.28 0.0
29 05:55 S 13 0.00 Fair CLR 19 16 83% 76.25 0.0
29 05:35 S 13 16.09 Fair CLR 19 16 83% 76.3 0.0
29 05:15 S 13 16.09 Fair CLR 19 16 83% 76.33 0.0
29 04:55 S 9 16.09 Fair CLR 18 16 88% 76.35 0.0
29 04:35 S 9 16.09 Fair CLR 18 16 88% 76.33 0.0
29 04:15 S 9 16.09 Fair CLR 18 16 88% 76.33 0.0
29 03:55 S 11 16.09 Fair CLR 18 16 88% 76.33 0.0
29 03:35 SE 11 16.09 Fair CLR 18 16 88% 76.33 0.0
29 03:15 SE 11 16.09 Fair CLR 19 16 83% 76.35 0.0
29 02:55 SE 11 16.09 Fair CLR 19 16 83% 76.38 0.0
29 02:35 SE 9 16.09 Fair CLR 19 17 88% 76.35 0.0
29 02:20 SE 11 16.09 Fair CLR 19 17 88% 76.35 0.0
29 01:55 SE 13 16.09 Fair CLR 20 17 83% 76.35 0.0
29 01:35 S 6 16.09 Fair CLR 20 17 83% 76.38 0.0
29 01:15 SE 9 16.09 Fair CLR 20 17 83% 76.38 0.0
29 00:55 SE 11 16.09 Fair CLR 20 17 83% 76.35 0.0
29 00:35 S 11 16.09 Fair CLR 20 17 83% 76.38 0.0
29 00:15 S 13 16.09 Fair CLR 20 17 83% 76.38 0.0
28 23:55 SE 9 16.09 Fair CLR 20 17 83% 76.38 0.0
28 23:35 SE 9 16.09 Fair CLR 21 17 78% 76.38 0.0
28 23:15 SE 9 16.09 Fair CLR 21 17 78% 76.38 0.0
28 22:55 S 11 16.09 Fair CLR 21 17 78% 76.38 0.0
28 22:35 SE 9 16.09 Fair CLR 21 17 78% 76.4 0.0
28 22:20 SE 7 16.09 Fair CLR 21 18 83% 76.4 0.0
28 21:50 S 11 16.09 Fair CLR 22 18 78% 76.4 0.0
28 21:35 SE 9 16.09 Fair CLR 22 18 78% 76.4 0.0
28 21:15 SE 9 16.09 Fair CLR 23 18 74% 76.38 0.0
28 20:35 SE 9 16.09 Fair CLR 24 18 69% 25 76.35 0.0
28 20:15 SE 7 16.09 Fair CLR 24 18 69% 25 76.35 0.0
28 19:55 SE 6 16.09 Fair CLR 25 18 65% 26 76.38 0.0
28 19:35 SE 7 16.09 Fair CLR 25 18 65% 26 76.38 0.0
28 19:15 S 7 16.09 Fair CLR 26 18 61% 27 76.38 0.0
28 18:55 S 9 16.09 Fair CLR 26 18 61% 27 76.38 0.0
28 18:35 S 9 16.09 Fair CLR 27 17 54% 28 76.4 0.0
28 18:15 S 7 16.09 Fair CLR 27 17 54% 28 76.43 0.0
28 17:55 SW 11 16.09 Fair CLR 28 17 51% 29 76.43 0.0
28 17:35 S 13 16.09 Fair CLR 28 17 51% 29 76.4 0.0
28 17:15 S 7 16.09 Fair CLR 27 17 54% 28 76.4 0.0
28 16:55 SW 9 16.09 Fair CLR 28 16 48% 28 76.43 0.0
Date Time (cdt) Wind (kph) Vis. (km) Weather Sky Cond. Air Dwpt Max. Min. Relative Humidity Wind Chill (°C) Heat Index (°C) altimeter (cm) sea level (mb) 1 hr 3 hr 6 hr
6 hour
Temperature (ºC) Pressure Precipitation (cm)